Flag for U.S.A. Weather past 2 weeks in St. Croix Falls, Wisconsin, U.S.A.

Now
80 °F

Cloudy.


Feels Like: 84 °F
Forecast: 60 / 78 °F
Wind: 9 mph from Southwest

Location: L O Simenstad Municipal Airport

Current Time: Jul 28, 2015 at 8:40:40 PM

Latest Report: Jul 28, 2015 at 8:15 PM


Visibility: 10 mi

Pressure: 29.85 "Hg

Humidity: 77%

Dew point: 72 °F

Location of St. Croix FallsLocation

Historic Weather in St. Croix Falls — Graph

°F

St. Croix Falls temperature yesterday

Maximum temperature yesterday: 84 °F (at 1:35 PM)
Minimum temperature yesterday: 66 °F (at 4:15 AM)
Average temperature yesterday: 76 °F

Past Weeks' High & Low Weather Summary

 TemperatureHumidityPressure
High86 °F (Jul 26, 3:15 PM)100% (Jul 13, 7:55 PM)30.05 "Hg (Jul 13, 7:55 PM)
Low53 °F (Jul 21, 5:55 AM)43% (Jul 22, 12:55 PM)29.63 "Hg (Jul 13, 7:15 PM)
Average72 °F80%29.90 "Hg
* Reported Jul 13 7:15 PM — Jul 28 7:15 PM, St. Croix Falls, Weather by CustomWeather, © 2015

Note: Actual official high and low records may vary slightly from our data, if they occured in-between our weather recording intervals... More about our weather records

Advertising

St. Croix Falls weather history for previous 24 hours

 ConditionsComfort  
Time TempWeatherWind HumidityBarometerVisibility
7:15 PM
Tue, Jul 28
80 °FCloudy.5 mph79%29.83 "Hg10 mi
6:55 PM80 °FCloudy.5 mph77%29.84 "Hg10 mi
6:35 PM80 °FMore clouds than sun.3 mph77%29.84 "Hg10 mi
6:15 PM81 °FOvercast.3 mph75%29.84 "Hg10 mi
5:55 PM81 °FOvercast.3 mph72%29.84 "Hg10 mi
5:15 PM82 °FMore clouds than sun.8 mph69%29.84 "Hg10 mi
4:55 PM82 °FMore clouds than sun.8 mph68%29.85 "Hg10 mi
4:15 PM83 °FMore clouds than sun.8 mph67%29.84 "Hg10 mi
3:55 PM82 °FCloudy.13 mph65%29.84 "Hg10 mi
3:35 PM83 °FMostly cloudy.12 mph66%29.85 "Hg10 mi
3:15 PM83 °FMostly cloudy.9 mph66%29.84 "Hg10 mi
2:55 PM83 °FPartly sunny.10 mph67%29.85 "Hg10 mi
2:35 PM82 °FPartly sunny.13 mph66%29.85 "Hg10 mi
2:15 PM82 °FScattered clouds.10 mph68%29.85 "Hg10 mi
1:15 PM81 °FScattered clouds.17 mph69%29.86 "Hg10 mi
12:55 PM80 °FSunny.13 mph70%29.86 "Hg10 mi
12:35 PM80 °FSunny.12 mph71%29.86 "Hg10 mi
12:15 PM79 °FSunny.12 mph73%29.86 "Hg10 mi
11:55 AM79 °FSunny.12 mph71%29.85 "Hg10 mi
11:15 AM78 °FSunny.16 mph74%29.84 "Hg10 mi
10:55 AM77 °FSunny.13 mph89%29.84 "Hg10 mi
10:35 AM76 °FSunny.12 mph94%29.84 "Hg10 mi
10:15 AM74 °FScattered clouds.13 mph99%29.82 "Hg10 mi
9:55 AM73 °FScattered clouds.15 mph100%29.82 "Hg10 mi
9:35 AM72 °FLight rain. Scattered clouds.21 mph100%29.78 "Hg10 mi
9:15 AM71 °FLight rain. Broken clouds.18 mph100%29.81 "Hg10 mi
8:55 AM71 °FLight rain. More clouds than sun.15 mph100%29.81 "Hg10 mi
8:35 AM71 °FRain. More clouds than sun.17 mph100%29.84 "Hg10 mi
8:15 AM71 °FRain. More clouds than sun.10 mph100%29.91 "Hg5 mi
7:55 AM72 °FRain. Mostly cloudy.13 mph100%29.91 "Hg7 mi
7:35 AM72 °FHeavy rain. More clouds than sun.9 mph100%29.93 "Hg2 mi
7:15 AM73 °FHeavy rain. Partly sunny.9 mph100%29.91 "Hg7 mi
6:55 AM73 °FLight rain. Scattered clouds.14 mph100%29.88 "Hg10 mi
6:35 AM73 °FPassing clouds.13 mph99%29.84 "Hg10 mi
6:15 AM73 °FPartly cloudy.12 mph100%29.84 "Hg10 mi
5:55 AM72 °FPassing clouds.10 mph100%29.85 "Hg10 mi
5:35 AM72 °FClear.12 mph100%29.85 "Hg10 mi
5:15 AM72 °FClear.9 mph100%29.85 "Hg10 mi
4:15 AM72 °FPassing clouds.9 mph100%29.88 "Hg10 mi
3:55 AM72 °FClear.9 mph100%29.88 "Hg10 mi
3:35 AM72 °FClear.8 mph100%29.89 "Hg10 mi
3:15 AM72 °FClear.7 mph100%29.90 "Hg10 mi
2:55 AM72 °FClear.7 mph100%29.90 "Hg10 mi
2:35 AM72 °FClear.7 mph100%29.91 "Hg10 mi
2:15 AM72 °FClear.8 mph100%29.91 "Hg10 mi
1:55 AM73 °FClear.6 mph100%29.92 "Hg10 mi
1:35 AM73 °FPassing clouds.7 mph99%29.93 "Hg10 mi
1:15 AM74 °FPassing clouds.6 mph98%29.94 "Hg10 mi
12:55 AM74 °FClear.7 mph97%29.95 "Hg10 mi
12:35 AM74 °FClear.6 mph98%29.96 "Hg10 mi
12:15 AM74 °FClear.6 mph95%29.96 "Hg10 mi
11:55 PM
Mon, Jul 27
74 °FClear.5 mph89%29.96 "Hg10 mi
11:35 PM75 °FClear.8 mph83%29.96 "Hg10 mi
11:15 PM76 °FClear.8 mph82%29.96 "Hg10 mi
10:55 PM76 °FClear.7 mph80%29.96 "Hg10 mi
10:35 PM76 °FClear.9 mph81%29.95 "Hg10 mi
10:15 PM75 °FClear.8 mph81%29.96 "Hg10 mi
9:55 PM76 °FClear.8 mph81%29.95 "Hg10 mi
9:35 PM76 °FSunny.8 mph80%29.95 "Hg10 mi
9:15 PM76 °FSunny.7 mph82%29.95 "Hg10 mi
8:55 PM77 °FSunny.7 mph79%29.95 "Hg10 mi
8:35 PM78 °FSunny.7 mph77%29.95 "Hg10 mi
8:15 PM79 °FScattered clouds.6 mph75%29.95 "Hg10 mi
Weather by CustomWeather, © 2015

See weather overviewHow to use our weather pages